Flag for Canada Weather past 2 weeks in Arviat, Nunavut Territory, Canada

Now
50 °F

Passing clouds.


Feels Like: 45 °F
Forecast: 44 / 54 °F
Wind: 13 mph from Northeast

Location: Arviat Airport

Current Time: Jul 25, 2014 at 1:38:43 PM

Latest Report: Jul 25, 2014 at 1:00 PM


Visibility: 15 mi

Pressure: 30.00 "Hg

Humidity: 82%

Dew point: 45 °F

Location of ArviatLocation

Historic Weather in Arviat — Graph

°F

Arviat temperature yesterday

Maximum temperature yesterday: 64 °F (at 11:00 AM)
Minimum temperature yesterday: 50 °F (at 3:00 AM)
Average temperature yesterday: 58 °F

Past Weeks' High & Low Weather Summary

 TemperatureHumidityPressure
High79 °F (Jul 15, 3:00 PM)100% (Jul 10, 7:00 PM)30.28 "Hg (Jul 10, 7:00 PM)
Low41 °F (Jul 11, 5:00 PM)31% (Jul 23, 3:00 PM)29.32 "Hg (Jul 17, 5:00 AM)
Average53 °F79%29.76 "Hg
* Reported Jul 10 12:00 Noon — Jul 25 12:00 Noon, Arviat, Weather by CustomWeather, © 2014

Note: Actual official high and low records may vary slightly from our data, if they occured in-between our weather recording intervals... More about our weather records

Advertising

Arviat weather history for previous 24 hours

 ConditionsComfort  
Time TempWeatherWind HumidityBarometerVisibility
12:00 PM
Jul 25
50 °FPassing clouds.12 mph82%29.99 "Hg15 mi
11:00 AM48 °FPartly sunny.13 mph82%29.99 "Hg15 mi
10:53 AM48 °FPartly sunny.13 mph87%29.99 "Hg15 mi
10:00 AM48 °FPartly sunny.13 mph87%29.98 "Hg15 mi
9:00 AM46 °FLow clouds.13 mph93%29.97 "Hg10 mi
8:00 AM46 °FFog.12 mph93%29.96 "Hg2 mi
7:00 AM45 °FFog.15 mph100%29.94 "Hg0 mi
6:00 AM48 °FSunny.13 mph94%29.93 "Hg9 mi
5:00 AM48 °FClear.9 mph94%29.91 "Hg9 mi
4:00 AM52 °FClear.10 mph82%29.91 "Hg9 mi
3:00 AM55 °FClear.3 mph82%29.91 "Hg9 mi
2:00 AM54 °FClear.5 mph82%29.90 "Hg9 mi
1:00 AM54 °FClear.7 mph88%29.90 "Hg9 mi
12:00 AM55 °FClear.10 mph77%29.89 "Hg9 mi
11:00 PM
Jul 24
55 °FSunny.9 mph77%29.89 "Hg9 mi
10:00 PM59 °FSunny.7 mph72%29.89 "Hg9 mi
9:00 PM61 °FSunny.3 mph59%29.89 "Hg9 mi
8:00 PM61 °FSunny.5 mph55%29.90 "Hg9 mi
7:00 PM61 °FSunny.6 mph55%29.91 "Hg9 mi
6:00 PM59 °FSunny.6 mph63%29.91 "Hg9 mi
5:00 PM61 °FSunny.7 mph63%29.91 "Hg15 mi
4:00 PM61 °FSunny.6 mph59%29.93 "Hg15 mi
3:00 PM63 °FSunny.9 mph59%29.93 "Hg15 mi
2:00 PM63 °FSunny.9 mph52%29.93 "Hg15 mi
1:00 PM61 °FPassing clouds.14 mph63%29.92 "Hg15 mi
Weather by CustomWeather, © 2014

See weather overviewHow to use our weather pages